This demonstration page uses our WeatherBlox Daily Observations layout. Learn more.

39.29038, -76.61219

Hourly Observations for January 30, 2019

Temp ( °F °C ) Dew Point ( °F °C ) Humidity (%) Winds ( mph kmh ) Pressure ( in mb ) Visibility ( mi km ) Precip ( " mm )
12:54 am 00:54 undefined 26 -3.3 12 -11.1 55 55 undefined N/A 29.94 1014 N/A 0 0
1:54 am 01:54 undefined 25 -3.9 11 -11.7 55 55 undefined N/A 30.09 1019 N/A 0 0
2:54 am 02:54 undefined 24 -4.4 9 -12.8 52 52 undefined N/A 29.94 1014 N/A 0 0
3:54 am 03:54 undefined 23 -5 11 -11.7 60 60 undefined N/A 30.03 1017 N/A 0 0
4:54 am 04:54 undefined 22 -5.6 12 -11.1 66 66 undefined N/A 29.97 1015 N/A 0 0
5:54 am 05:54 undefined 23 -5 9 -12.8 55 55 undefined N/A 29.94 1014 N/A 0 0
6:54 am 06:54 undefined 22 -5.6 13 -10.6 68 68 undefined N/A 30.03 1017 N/A 0 0
7:54 am 07:54 undefined 22 -5.6 12 -11.1 66 66 undefined N/A 29.91 1013 N/A 0 0
9:54 am 09:54 undefined 29 -1.7 7 -13.9 39 39 undefined N/A 29.91 1013 N/A 0 0
10:54 am 10:54 undefined 32 0 11 -11.7 41 41 undefined N/A 29.88 1012 N/A 0 0
11:54 am 11:54 undefined 35 1.7 11 -11.7 37 37 undefined N/A 29.85 1011 N/A 0 0
12:54 pm 12:54 undefined 36 2.2 11 -11.7 35 35 undefined N/A 29.83 1010 N/A 0 0
1:54 pm 13:54 undefined 24 -4.4 13 -10.6 62 62 undefined N/A 29.83 1010 N/A 0 0
2:54 pm 14:54 undefined 26 -3.3 4 -15.6 38 38 undefined N/A 30 1016 N/A 0 0
3:33 pm 15:33 undefined 22 -5.6 -1 -18.3 36 36 undefined N/A 30.06 1018 N/A 0 0
3:54 pm 15:54 undefined 22 -5.6 -3 -19.4 33 33 undefined N/A 30.03 1017 N/A 0 0
4:54 pm 16:54 undefined 19 -7.2 -7 -21.7 31 31 undefined N/A 30.06 1018 N/A 0 0
5:54 pm 17:54 undefined 17 -8.3 -8 -22.2 32 32 undefined N/A 30.12 1020 N/A 0 0
6:54 pm 18:54 undefined 16 -8.9 -10 -23.3 30 30 undefined N/A 30.21 1023 N/A 0 0
7:54 pm 19:54 undefined 14 -10 -10 -23.3 33 33 undefined N/A 30.24 1024 N/A 0 0
8:54 pm 20:54 undefined 13 -10.6 -10 -23.3 35 35 undefined N/A 30.27 1025 N/A 0 0
9:54 pm 21:54 undefined 12 -11.1 -12 -24.4 33 33 undefined N/A 30.27 1025 N/A 0 0
10:54 pm 22:54 undefined 11 -11.7 -9 -22.8 40 40 undefined N/A 30.33 1027 N/A 0 0
11:54 pm 23:54 undefined 11 -11.7 -10 -23.3 38 38 undefined N/A 30.33 1027 N/A 0 0

Powered by AerisWeather